Location: Pcim
(49.7500°N, 19.9670°E)
Time: 18:11:37
(UTC+02:00)

ZACube-1 - Pass Details

Date: 28 April 2024
Orbit: 566 x 635 km, 97.7° (Epoch: 28 May)

Event Time Altitude Azimuth Distance (km) Brightness Sun altitude
Rises 02:13:31 0° 32° (NNE) 2,936 ? -22.6°
Reaches altitude 10° 02:17:18 10° 66° (ENE) 2,028 ? -22.3°
Maximum altitude 02:18:49 12° 86° (E) 1,925 ? -22.2°
Drops below altitude 10° 02:20:19 10° 106° (ESE) 2,026 ? -22.1°
Enters shadow 02:22:30 - 129° (SE) 2,471 ? -22.0°
